sat.trackr.live / text

‹ back to catalog

NEMO-HD

NORAD 46277 · 2020-061F

PAYLOAD ACTIVE UNKNOWN

§ Identity

Operator
Country
SVN
Launch date
2020-09-03
Launch site
FRGUI
Launch vehicle
Mass (kg)
RCS (m²)

Purposes: earth_obs

External: N2YO · Heavens-Above · Gunter

§ Orbital elements

Epoch: 2026-05-25T04:37:00.436224Z

Period
93.26 min
Inclination
97.1934°
Eccentricity
0.0002728
Mean motion
15.44061920 rev/d
Perigee alt
432.3 km
Apogee alt
436.0 km
Semi-major
6,812.3 km
B*
2.3830e-4
RAAN
207.3844°
Arg perigee
108.2246°
Mean anomaly
251.9300°
Rev number
31,843

§ Raw data

NEMO-HD1 46277U 20061F   26145.19236616  .00010801  00000+0  23830-3 0  99952 46277  97.1934 207.3844 0002728 108.2246 251.9300 15.44061920318432

JSON: /api/v1/satellites/46277 · /tle

For live sub-satellite position, see the globe view (requires WebGL).

§ Visibility from observer

Set your observer location to see the next 7 days of passes ≥ 10°. The values pass through the URL so the page stays shareable.

No JS? Fill the form by hand. The geolocation button needs JavaScript.

§ Radio — SatNOGS DB

ModeDescriptionDownlinkUplink
QPSK 375 BW QPSK 8.212 GHz

1 transmitter · refreshed weekly from db.satnogs.org